Change the Weather History Date:

Monday, December 3, 2012

  Actual Average Record
Temperature  
Mean Temperature 52 °F -  
Max Temperature 61 °F 45 °F 66 °F (1998)
Min Temperature 42 °F 32 °F 19 °F (2000)
Degree Days  
Heating Degree Days 13    
Growing Degree Days 2 (Base 50)    
Moisture  
Dew Point 44 °F    
Average Humidity 82    
Maximum Humidity 100    
Minimum Humidity 55    
Precipitation  
Precipitation 0.00 in - - ()
Sea Level Pressure  
Sea Level Pressure 30.19 in    
Wind  
Wind Speed 5 mph (WNW)    
Max Wind Speed 10 mph    
Max Gust Speed 16 mph    
Visibility 6 miles    
Events      
Averages and records for this station are not official NWS values.
T = Trace of Precipitation, MM = Missing Value Source: NWS Daily Summary

Daily Weather History Graph

Daily Weather History Graph

Search for Another Location

Airport or City:

Trip Planner

Search our weather history database for the weather conditions in past years. The results will help you decide how hot, cold, wet, or windy it might be!

Date:

Astronomy

Dec. 03, 2012 Rise Set
Actual Time 7:00 AM EST 4:26 PM EST
Civil Twilight 6:30 AM EST 4:56 PM EST
Nautical Twilight 5:56 AM EST 5:31 PM EST
Astronomical Twilight 5:23 AM EST 6:04 PM EST
Moon 9:11 PM EST (12/3) 10:21 AM EST (12/3)
Length of Visible Light 10h 26m
Length of Day
9h 25m
Waning Gibbous, 78% of the Moon is Illuminated
Dec 3
Waning Gibbous
Dec 6
Last Quarter
Dec 13
New
Dec 20
First Quarter
Dec 28
Full

Hourly Weather History & Observations

Time (EST) Temp. Windchill Dew Point Humidity Pressure Visibility Wind Dir Wind Speed Gust Speed Precip Events Conditions
12:53 AM 48.9 °F - 48.0 °F 97% 30.12 in 4.0 mi SW 6.9 mph - N/A   Mostly Cloudy
1:53 AM 48.0 °F - 46.9 °F 96% 30.12 in 4.0 mi WSW 4.6 mph - N/A   Scattered Clouds
2:53 AM 48.9 °F - 46.9 °F 93% 30.12 in 4.0 mi WSW 5.8 mph - N/A   Mostly Cloudy
3:53 AM 48.9 °F - 46.9 °F 93% 30.11 in 4.0 mi WSW 6.9 mph - N/A   Mostly Cloudy
4:53 AM 48.0 °F - 46.9 °F 96% 30.13 in 3.0 mi West 5.8 mph - N/A   Mostly Cloudy
5:36 AM 46.4 °F 44.3 °F 44.6 °F 93% 30.14 in 2.5 mi West 4.6 mph - N/A   Clear
5:53 AM 46.0 °F 44.8 °F 45.0 °F 96% 30.14 in 2.5 mi West 3.5 mph - N/A   Clear
6:53 AM 44.1 °F - 44.1 °F 100% 30.17 in 2.5 mi Calm Calm - N/A   Clear
7:05 AM 44.6 °F - 44.6 °F 100% 30.17 in 1.5 mi Calm Calm - N/A   Clear
7:53 AM 46.9 °F - 46.0 °F 97% 30.18 in 2.0 mi West 3.5 mph - N/A   Clear
8:40 AM 50.0 °F - 48.2 °F 94% 30.19 in 3.0 mi West 3.5 mph - N/A   Clear
8:53 AM 52.0 °F - 48.0 °F 86% 30.20 in 4.0 mi WNW 5.8 mph - N/A   Clear
9:53 AM 55.9 °F - 48.9 °F 77% 30.20 in 6.0 mi WNW 8.1 mph - N/A   Haze
10:53 AM 59.0 °F - 45.0 °F 60% 30.20 in 10.0 mi NW 10.4 mph - N/A   Clear
11:53 AM 60.1 °F - 44.1 °F 55% 30.19 in 10.0 mi NNW 8.1 mph - N/A   Clear
12:53 PM 60.1 °F - 44.1 °F 55% 30.17 in 10.0 mi NNW 10.4 mph 16.1 mph N/A   Clear
1:53 PM 61.0 °F - 45.0 °F 56% 30.17 in 10.0 mi NW 8.1 mph - N/A   Clear
2:53 PM 60.1 °F - 44.1 °F 55% 30.18 in 10.0 mi West 6.9 mph - N/A   Clear
3:53 PM 59.0 °F - 43.0 °F 55% 30.20 in 10.0 mi NNW 4.6 mph - N/A   Clear
4:53 PM 57.0 °F - 43.0 °F 59% 30.22 in 10.0 mi NNW 4.6 mph - N/A   Clear
5:53 PM 51.1 °F - 43.0 °F 74% 30.24 in 10.0 mi Calm Calm - N/A   Clear
6:53 PM 46.9 °F - 41.0 °F 80% 30.25 in 10.0 mi Calm Calm - N/A   Clear
7:53 PM 48.0 °F - 42.1 °F 80% 30.27 in 9.0 mi West 3.5 mph - N/A   Clear
8:53 PM 43.0 °F - 39.9 °F 89% 30.27 in 9.0 mi Calm Calm - N/A   Clear
9:53 PM 43.0 °F - 41.0 °F 93% 30.27 in 9.0 mi Calm Calm - N/A   Clear
10:53 PM 43.0 °F 41.3 °F 39.9 °F 89% 30.27 in 8.0 mi North 3.5 mph - N/A   Clear
11:53 PM 42.1 °F - 39.0 °F 89% 30.28 in 8.0 mi Calm Calm - N/A   Clear